DECAYED

OBJECT E, 57584 (Decayed)

Orbit data source: Space-Track

You're viewing an Uncataloged Satellite

Recently launched and/or uncataloged satellites may have evolving metadata. Metadata may include but not limited to: Owner, Maufacturer, Bus, Motor, and Mission.

OBJECT E, 57584 was a Chinese satellite in LEO that was launched on Thu, 10 Aug 2023 UTC via a GUSHENXING 1 launch vehicle from the Jiuquan Satellite Launch Center, China (JSC). Unknown objects in Earth's orbit typically refer to objects detected orbiting the Earth but have not yet been identified or cataloged. These objects could be anything from previously untracked satellites, spent rocket stages, debris from satellite collisions, or even natural meteoroids temporarily captured by Earth's gravity. This object's orbit decayed before it could be identified.

Not visible in the next 10 days
Identifier
57584, 2023-117E
Orbit
Decayed
Country
Flag of CNCN / PRC
Related business
None
Manufacturer
Unknown
Mission
Decayed Commercial Imaging
Bus & Motor
Unknown
Mass
Unknown
Launch date (UTC)
2023-08-10 (3 years ago)
Launch vehicle
GUSHENXING 1
Launch site
Jiuquan Satellite Launch Center, China (JSC)
Object type
Unknown
Shape & HBR
Box, 0.8 m
Radar Cross Section
2.000 m², Medium (>0.1 m² and < 1m²)

Expand to show TLE details & history
Last TLE update: 1 year ago

TLE from 1 year ago
0 OBJECT E
1 57584U 23117E   25143.25442877  .06518439  25195-5  10714-2 0  9995
2 57584  97.4164 231.9774 0016190 262.0517  97.8942 16.33063457 99763
Epoch: 2025-05-23T06:06Z
TLE epoch observation values (Epoch: 2025-05-23T06:06:22.645Z)
Latitude
0.00002°
Longitude
-100.72923°
Altitude
189.038 km
Speed
7.792 km/s
True Right ascension
15h 27m 54s
True Declination
0° 00' 00"
Sunlit
Object was in full shadow at epoch
Visualization orbit readout
Latitude
Unknown
Longitude
Unknown
Altitude
Unknown
Speed
Unknown
Apparent Right ascension
Unknown
Apparent Declination
Unknown
Sunlit
N/A
Visualization observer readout
Local Sidereal Time
21:27:14
Azimuth
Unknown
Elevation
Unknown
Doppler factor
Unknown
Orbital elements
Apogee altitude
191.757 km
Perigee altitude
170.518 km
Semi-major axis
6,559.274 km
Eccentricity
0.00162
Inclination
97.4164°
RAAN
231.9774°
Arg. of periapsis
262.0517°
True anomaly
98.07791°
Mean anomaly
97.8942°
Eccentric anomaly
97.98606°
Mean motion
4.08563 °/min
Orbital period
88.11 mins
BSTAR
0.0010714
Loading maneuver chart data...
Computing Atmospheric mass density...
Loading historical data...
Loading historical data...
Loading historical data...
Loading historical data...
Loading historical data...
Loading historical data...
Loading historical data...

Documentation

Showing up to 5 results
|